Sanborn, NY

9:12 PM EST on February 23, 2017 (GMT -0500)
Niagara Falls International

Weather History for KIAG - November, 2013

Change the Weather History Date:

Sunday, November 3, 2013

  Actual Average Record
Temperature  
Mean Temperature 32 °F -  
Max Temperature 37 °F 50 °F 68 °F (2015)
Min Temperature 25 °F 35 °F 25 °F (1989)
Degree Days  
Heating Degree Days 33    
Moisture  
Dew Point 23 °F    
Average Humidity 66    
Maximum Humidity 85    
Minimum Humidity 52    
Precipitation  
Precipitation 0.01 in - - ()
Sea Level Pressure  
Sea Level Pressure 30.34 in    
Wind  
Wind Speed 8 mph (NNE)    
Max Wind Speed 12 mph    
Max Gust Speed -    
Visibility 10 miles    
Events      
Averages and records for this station are not official NWS values.
T = Trace of Precipitation, MM = Missing Value Source: NWS Daily Summary

Daily Weather History Graph

Daily Weather History Graph

Search for Another Location

Airport or City:

Trip Planner

Search our weather history database for the weather conditions in past years. The results will help you decide how hot, cold, wet, or windy it might be!

Date:

Astronomy

Nov. 03, 2013 Rise Set
Actual Time 6:53 AM EST 5:04 PM EST
Civil Twilight 6:23 AM EST 5:34 PM EST
Nautical Twilight 5:49 AM EST 6:08 PM EST
Astronomical Twilight 5:16 AM EST 6:41 PM EST
Moon 6:55 AM EST (11/3) 5:17 PM EST (11/3)
Length of Visible Light 11h 10m
Length of Day
10h 11m
New Moon, 0% of the Moon is Illuminated
Nov 3
New Moon
Nov 10
First Quarter
Nov 17
Full
Nov 25
Last Quarter
Dec 2
New

Hourly Weather History & Observations

Time (EST) Temp. Windchill Dew Point Humidity Pressure Visibility Wind Dir Wind Speed Gust Speed Precip Events Conditions
12:53 AM 36.0 °F 28.0 °F 30.0 °F 79% 30.08 in 10.0 mi NNE 11.5 mph - N/A   Overcast
1:53 AM 36.0 °F 31.1 °F 30.0 °F 79% 30.10 in 10.0 mi NNE 5.8 mph - N/A   Overcast
1:53 AM 36.0 °F 31.1 °F 28.0 °F 73% 30.13 in 10.0 mi North 5.8 mph - N/A   Overcast
2:53 AM 35.1 °F 28.6 °F 28.0 °F 76% 30.14 in 10.0 mi NNE 8.1 mph - N/A   Overcast
3:22 AM 35.6 °F 28.6 °F 26.6 °F 70% 30.12 in 10.0 mi NNE 9.2 mph - N/A   Overcast
3:53 AM 34.0 °F 28.0 °F 25.0 °F 70% 30.19 in 10.0 mi NNE 6.9 mph - N/A   Overcast
4:01 AM 33.8 °F 25.8 °F 24.8 °F 70% 30.15 in 10.0 mi NNE 10.4 mph - N/A   Overcast
4:53 AM 34.0 °F 26.6 °F 25.0 °F 70% 30.22 in 10.0 mi NE 9.2 mph - N/A   Overcast
5:53 AM 32.0 °F 24.8 °F 23.0 °F 69% 30.25 in 10.0 mi NNE 8.1 mph - N/A   Overcast
6:53 AM 32.0 °F 24.8 °F 21.9 °F 66% 30.28 in 10.0 mi NNE 8.1 mph - N/A   Overcast
7:04 AM 32.0 °F 24.2 °F 21.2 °F 64% 30.25 in 10.0 mi NNE 9.2 mph - N/A   Mostly Cloudy
7:53 AM 32.0 °F 25.6 °F 21.9 °F 66% 30.32 in 10.0 mi NNE 6.9 mph - N/A   Mostly Cloudy
8:53 AM 34.0 °F 26.0 °F 23.0 °F 64% 30.36 in 10.0 mi North 10.4 mph - N/A   Mostly Cloudy
9:53 AM 33.1 °F 24.4 °F 21.0 °F 61% 30.38 in 10.0 mi North 11.5 mph - N/A   Mostly Cloudy
10:53 AM 36.0 °F 28.0 °F 21.9 °F 57% 30.40 in 10.0 mi North 11.5 mph - N/A   Mostly Cloudy
11:53 AM 36.0 °F 31.1 °F 19.9 °F 52% 30.41 in 10.0 mi NNE 5.8 mph - N/A   Mostly Cloudy
12:53 PM 36.0 °F 29.6 °F 19.9 °F 52% 30.41 in 10.0 mi NNE 8.1 mph - N/A   Mostly Cloudy
1:53 PM 35.1 °F 29.3 °F 19.9 °F 54% 30.42 in 10.0 mi NNW 6.9 mph - N/A   Partly Cloudy
2:53 PM 37.0 °F 32.4 °F 21.0 °F 52% 30.43 in 10.0 mi NE 5.8 mph - N/A   Partly Cloudy
3:53 PM 36.0 °F 30.3 °F 19.9 °F 52% 30.45 in 10.0 mi NNE 6.9 mph - N/A   Partly Cloudy
4:53 PM 33.1 °F 27.7 °F 18.0 °F 54% 30.48 in 10.0 mi North 5.8 mph - N/A   Partly Cloudy
5:53 PM 30.9 °F 27.5 °F 18.0 °F 59% 30.49 in 10.0 mi NNE 3.5 mph - N/A   Partly Cloudy
6:53 PM 30.0 °F - 19.0 °F 64% 30.51 in 10.0 mi Calm Calm - N/A   Partly Cloudy
7:53 PM 28.9 °F - 21.0 °F 72% 30.52 in 10.0 mi Calm Calm - N/A   Clear
8:53 PM 28.0 °F - 21.9 °F 78% 30.54 in 10.0 mi Calm Calm - N/A   Clear
9:53 PM 27.0 °F - 21.9 °F 81% 30.57 in 10.0 mi Calm Calm - N/A   Clear
10:53 PM 25.0 °F - 21.0 °F 85% 30.57 in 10.0 mi Calm Calm - N/A   Clear